map of EZE home
Great Circle Mapper logo
EZE - Airport
Location
City:  Buenos Aires, Distrito Federal, Argentina
Name:Aeropuerto Internacional Ezeiza/Ministro Pistarini
ICAO / IATA:SAEZ / EZE

Details
Type:Airport (Aerodrome, Airfield)
Use:Public/Civil, Military, International (customs port of entry)
Latitude:3449'20"S (-34.822221)
Longitude:5832'09"W (-58.535832)
Datum:WGS 1984
Elevation:67 ft (20 m)
Variation:8.2W (WMM2015 magnetic declination)
Runways:2
Longest:10827 × 197 ft (3300 × 60 m), paved

Time
Time Zone:UTC-3
Local Time:

Weather
METAR:SAEZ 222100Z 24011KT 210V270 CAVOK 21/04 Q1019
TAF:SAEZ 221700Z 2218/2318 22010KT 9999 FEW050 TX25/2318Z TN14/2309Z
BECMG 2223/2301 CAVOK
BECMG 2306/2310 32010KT

Related Locations
Nearby:
Farthest:TAO: 12316 mi / 19821 km
Qingdao [Liuting Intl], Shandong, CN

Find:

   beyond  
but within

Other Information
Maps:
NOTAMs:
Links:
Sources:

  
flag of Argentina
flag of Distrito Federal
  

Airport Diagram

Airport diagram for EZE

Airport diagram (OBSOLETE) from NGA

Sectional Chart

Flight Planning
at skyvector.com

Satellite Image

Google Maps Satellite View

 

Copyright © 2004-2014 Karl L. Swartz. All rights reserved.
The Great Circle Mapper name and logo are trademarks of the Great Circle Mapper.
All other trademarks mentioned herein belong to their respective owners.
Please see credits for attibutions and further copyright information.

  Follow gcmap on Facebook Follow gcmap on Twitter

hCard Microformat

Geo Microformat